,,Stat1,,Stat2,,Stat3,,Stat4,,Wind1,,Wind1,
time,status,PR1M_SUM,status,RH1M_AVG,status,SR1M_AVG,status,TA1M_AVG,status,W1dAve1m,status,W1sAve1m,
2000-03-19, 00:01:00,VALID,0,VALID,99.1076,VALID,0,VALID,18.427,VALID,351,VALID,0,
2000-03-19, 00:02:00,VALID,0,VALID,99.1496,VALID,0.0169808,VALID,18.4401,VALID,351,VALID,0,
2000-03-19, 00:03:00,VALID,0,VALID,99.1712,VALID,0.0169808,VALID,18.4429,VALID,341,VALID,0,
2000-03-19, 00:04:00,VALID,0,VALID,99.1661,VALID,0,VALID,18.4233,VALID,344,VALID,0,
2000-03-19, 00:05:00,VALID,0,VALID,99.1788,VALID,0,VALID,18.4203,VALID,338,VALID,0,
2000-03-19, 00:06:00,VALID,0,VALID,99.1686,VALID,-0.0169808,VALID,18.4145,VALID,339,VALID,0,
2000-03-19, 00:07:00,VALID,0,VALID,99.1928,VALID,0.0169808,VALID,18.3977,VALID,320,VALID,0,
2000-03-19, 00:08:00,VALID,0,VALID,99.1801,VALID,0,VALID,18.3979,VALID,319,VALID,0,
2000-03-19, 00:09:01,VALID,0,VALID,99.2157,VALID,-0.0169808,VALID,18.3947,VALID,320,VALID,0,
2000-03-19, 00:10:00,VALID,0,VALID,99.236,VALID,0,VALID,18.4074,VALID,334,VALID,0,
2000-03-19, 00:11:00,VALID,0,VALID,99.2424,VALID,0.0169808,VALID,18.4071,VALID,9,VALID,0,
2000-03-19, 00:12:00,VALID,0,VALID,99.2335,VALID,0.0169808,VALID,18.3908,VALID,357,VALID,0,
2000-03-19, 00:13:00,VALID,0,VALID,99.2589,VALID,0.0169808,VALID,18.4071,VALID,24,VALID,0.135742,
2000-03-19, 00:14:00,VALID,0,VALID,99.2564,VALID,-0.0849042,VALID,18.4152,VALID,83,VALID,0.383036,
2000-03-19, 00:15:00,VALID,0,VALID,99.2653,VALID,-0.0509425,VALID,18.4187,VALID,81,VALID,0.384816,
2000-03-19, 00:16:00,VALID,0,VALID,99.2869,VALID,-0.0849042,VALID,18.4247,VALID,83,VALID,0.310764,
2000-03-19, 00:17:00,VALID,0,VALID,99.2564,VALID,-0.0849042,VALID,18.4184,VALID,81,VALID,0.633614,
2000-03-19, 00:18:00,VALID,0,VALID,99.2246,VALID,-0.118866,VALID,18.4219,VALID,96,VALID,0.486328,
2000-03-19, 00:19:00,VALID,0,VALID,99.1941,VALID,-0.0679233,VALID,18.4118,VALID,87,VALID,0.588405,
2000-03-19, 00:20:00,VALID,0,VALID,99.1318,VALID,-0.101885,VALID,18.4053,VALID,93,VALID,0.737233,
2000-03-19, 00:21:01,VALID,0,VALID,99.0694,VALID,-0.101885,VALID,18.4152,VALID,84,VALID,0.760135,
2000-03-19, 00:22:00,VALID,0,VALID,98.9919,VALID,-0.0849042,VALID,18.4281,VALID,79,VALID,0.673986,
2000-03-19, 00:23:00,VALID,0,VALID,98.9588,VALID,-0.101885,VALID,18.4443,VALID,89,VALID,0.637587,
2000-03-19, 00:24:00,VALID,0,VALID,98.8736,VALID,-0.101885,VALID,18.4378,VALID,84,VALID,0.741602,
2000-03-19, 00:25:00,VALID,0,VALID,98.7363,VALID,-0.0849042,VALID,18.438,VALID,88,VALID,0.794975,
2000-03-19, 00:26:00,VALID,0,VALID,98.6562,VALID,-0.118866,VALID,18.4475,VALID,88,VALID,0.88742,
2000-03-19, 00:27:00,VALID,0,VALID,98.5773,VALID,-0.101885,VALID,18.4669,VALID,95,VALID,0.964638,
2000-03-19, 00:28:00,VALID,0,VALID,98.4616,VALID,-0.0849042,VALID,18.4867,VALID,93,VALID,1.29251,
2000-03-19, 00:29:00,VALID,0,VALID,98.3866,VALID,-0.101885,VALID,18.5024,VALID,92,VALID,0.932617,
2000-03-19, 00:30:00,VALID,0,VALID,98.2098,VALID,-0.0679233,VALID,18.5121,VALID,90,VALID,1.14253,
2000-03-19, 00:31:00,VALID,0,VALID,98.1119,VALID,-0.101885,VALID,18.5155,VALID,90,VALID,1.27799,
2000-03-19, 00:32:01,VALID,0,VALID,97.8843,VALID,-0.101885,VALID,18.5155,VALID,89,VALID,1.56719,
2000-03-19, 00:33:00,VALID,0,VALID,97.7571,VALID,-0.0849042,VALID,18.5151,VALID,91,VALID,1.50156,
2000-03-19, 00:34:00,VALID,0,VALID,97.6503,VALID,-0.0849042,VALID,18.5215,VALID,91,VALID,1.62991,
2000-03-19, 00:35:00,VALID,0,VALID,97.5105,VALID,-0.0849042,VALID,18.5275,VALID,93,VALID,1.23346,
2000-03-19, 00:36:00,VALID,0,VALID,97.3286,VALID,-0.0679233,VALID,18.5377,VALID,84,VALID,1.19631,
2000-03-19, 00:37:00,VALID,0,VALID,97.162,VALID,-0.0849042,VALID,18.5379,VALID,85,VALID,1.09138,
2000-03-19, 00:38:00,VALID,0,VALID,97.1239,VALID,-0.101885,VALID,18.5414,VALID,89,VALID,0.775338,
2000-03-19, 00:39:00,VALID,0,VALID,96.9777,VALID,-0.101885,VALID,18.5347,VALID,86,VALID,0.675305,
2000-03-19, 00:40:00,VALID,0,VALID,96.9967,VALID,-0.101885,VALID,18.5444,VALID,91,VALID,0.107772,
2000-03-19, 00:41:00,VALID,0,VALID,96.909,VALID,-0.101885,VALID,18.5476,VALID,102,VALID,0.0797276,
2000-03-19, 00:42:00,VALID,0,VALID,96.703,VALID,-0.101885,VALID,18.5515,VALID,146,VALID,0.335227,
2000-03-19, 00:43:01,VALID,0,VALID,96.4715,VALID,-0.118866,VALID,18.5381,VALID,154,VALID,0.463542,
2000-03-19, 00:44:00,VALID,0,VALID,96.2477,VALID,-0.0169808,VALID,18.537,VALID,151,VALID,0.551482,
2000-03-19, 00:45:00,VALID,0,VALID,96.0507,VALID,0,VALID,18.5499,VALID,164,VALID,0.296274,
2000-03-19, 00:46:00,VALID,0,VALID,95.907,VALID,0.0339617,VALID,18.543,VALID,127,VALID,0.352163,
2000-03-19, 00:47:00,VALID,0,VALID,95.9934,VALID,0,VALID,18.5626,VALID,107,VALID,0.0411184,
2000-03-19, 00:48:00,VALID,0,VALID,96.0303,VALID,0,VALID,18.5886,VALID,103,VALID,0,
2000-03-19, 00:49:00,VALID,0,VALID,95.8663,VALID,0,VALID,18.5852,VALID,101,VALID,0.105674,
2000-03-19, 00:50:00,VALID,0,VALID,95.3996,VALID,0,VALID,18.5949,VALID,86,VALID,0.760861,
2000-03-19, 00:51:00,VALID,0,VALID,95.2915,VALID,0,VALID,18.6175,VALID,74,VALID,0.610026,
2000-03-19, 00:52:00,VALID,0,VALID,95.1656,VALID,0,VALID,18.614,VALID,12,VALID,0.684513,
2000-03-19, 00:53:00,VALID,0,VALID,95.4377,VALID,0,VALID,18.6041,VALID,335,VALID,0.341346,
2000-03-19, 00:54:01,VALID,0,VALID,95.6679,VALID,0,VALID,18.5981,VALID,335,VALID,0,
2000-03-19, 00:55:00,VALID,0,VALID,95.6272,VALID,0,VALID,18.5559,VALID,75,VALID,0,
2000-03-19, 00:56:00,VALID,0,VALID,95.6488,VALID,0.0169808,VALID,18.5789,VALID,102,VALID,0,
2000-03-19, 00:57:00,VALID,0,VALID,95.8688,VALID,0.0169808,VALID,18.5847,VALID,88,VALID,0,
2000-03-19, 00:58:00,VALID,0,VALID,95.9019,VALID,0,VALID,18.5529,VALID,28,VALID,0,
2000-03-19, 00:59:00,VALID,0,VALID,96.0392,VALID,-0.0339617,VALID,18.5573,VALID,47,VALID,0,
2000-03-19, 01:00:00,VALID,0,VALID,96.2655,VALID,-0.101885,VALID,18.5672,VALID,95,VALID,0.234158,
2000-03-19, 01:01:00,VALID,0,VALID,96.2694,VALID,-0.0849042,VALID,18.5577,VALID,94,VALID,0.00683594,
2000-03-19, 01:02:00,VALID,0,VALID,96.3062,VALID,-0.0849042,VALID,18.5349,VALID,74,VALID,0,
2000-03-19, 01:03:00,VALID,0,VALID,96.2134,VALID,-0.0679233,VALID,18.5123,VALID,97,VALID,0,
2000-03-19, 01:04:00,VALID,0,VALID,96.2465,VALID,-0.0679233,VALID,18.5086,VALID,99,VALID,0.182075,
2000-03-19, 01:05:01,VALID,0,VALID,96.118,VALID,-0.0849042,VALID,18.5059,VALID,86,VALID,1.26082,
2000-03-19, 01:06:00,VALID,0,VALID,96.0201,VALID,-0.0679233,VALID,18.4865,VALID,82,VALID,1.31421,
2000-03-19, 01:07:00,VALID,0,VALID,96.0443,VALID,-0.101885,VALID,18.4669,VALID,78,VALID,1.10321,
2000-03-19, 01:08:00,VALID,0,VALID,96.1816,VALID,-0.0679233,VALID,18.4581,VALID,77,VALID,1.08422,
2000-03-19, 01:09:00,VALID,0,VALID,96.366,VALID,-0.0849042,VALID,18.4284,VALID,86,VALID,1.08298,
2000-03-19, 01:10:00,VALID,0,VALID,96.5364,VALID,-0.101885,VALID,18.3991,VALID,93,VALID,1.49198,
2000-03-19, 01:11:00,VALID,0,VALID,96.6839,VALID,-0.0849042,VALID,18.3832,VALID,90,VALID,1.40299,
2000-03-19, 01:12:00,VALID,0,VALID,96.8746,VALID,-0.0849042,VALID,18.3613,VALID,91,VALID,1.54316,
2000-03-19, 01:13:00,VALID,0,VALID,97.04,VALID,-0.0849042,VALID,18.3218,VALID,90,VALID,1.43729,
2000-03-19, 01:14:00,VALID,0,VALID,97.162,VALID,0.0339617,VALID,18.2981,VALID,95,VALID,1.64203,
2000-03-19, 01:15:00,VALID,0,VALID,97.232,VALID,0.0679233,VALID,18.2718,VALID,99,VALID,1.7389,
2000-03-19, 01:16:01,VALID,0,VALID,97.1951,VALID,0.0169808,VALID,18.2785,VALID,104,VALID,1.45749,
2000-03-19, 01:17:00,VALID,0,VALID,97.1175,VALID,0,VALID,18.2916,VALID,99,VALID,0.984961,
2000-03-19, 01:18:00,VALID,0,VALID,97.1366,VALID,0,VALID,18.2881,VALID,78,VALID,0.556799,
2000-03-19, 01:19:00,VALID,0,VALID,97.04,VALID,0.0339617,VALID,18.2918,VALID,91,VALID,0.740885,
2000-03-19, 01:20:00,VALID,0,VALID,96.8403,VALID,0.0169808,VALID,18.3038,VALID,90,VALID,0.988086,
2000-03-19, 01:21:00,VALID,0,VALID,96.6089,VALID,0,VALID,18.3435,VALID,88,VALID,0.879241,
2000-03-19, 01:22:00,VALID,0,VALID,96.4677,VALID,0.0169808,VALID,18.3428,VALID,83,VALID,0.798437,
2000-03-19, 01:23:00,VALID,0,VALID,96.3164,VALID,0.0169808,VALID,18.3495,VALID,84,VALID,0.919807,
2000-03-19, 01:24:00,VALID,0,VALID,95.9502,VALID,0.0509425,VALID,18.3954,VALID,98,VALID,1.04067,
2000-03-19, 01:25:00,VALID,0,VALID,95.6565,VALID,0.0169808,VALID,18.4334,VALID,100,VALID,0.935843,
2000-03-19, 01:26:01,VALID,0,VALID,95.6298,VALID,0,VALID,18.4367,VALID,91,VALID,0.815667,
2000-03-19, 01:27:01,VALID,0,VALID,95.6018,VALID,0.0339617,VALID,18.4207,VALID,90,VALID,0.737805,
2000-03-19, 01:28:00,VALID,0,VALID,95.6119,VALID,0,VALID,18.4016,VALID,85,VALID,0.741186,
2000-03-19, 01:29:00,VALID,0,VALID,95.673,VALID,-0.0509425,VALID,18.3931,VALID,95,VALID,0.835136,
2000-03-19, 01:30:00,VALID,0,VALID,95.6844,VALID,-0.0849042,VALID,18.3739,VALID,94,VALID,0.662879,
2000-03-19, 01:31:00,VALID,0,VALID,95.7175,VALID,-0.0849042,VALID,18.358,VALID,94,VALID,0.659856,
2000-03-19, 01:32:00,VALID,0,VALID,95.7289,VALID,-0.101885,VALID,18.3387,VALID,94,VALID,0.588542,
2000-03-19, 01:33:00,VALID,0,VALID,95.8421,VALID,-0.0679233,VALID,18.2962,VALID,94,VALID,0.642228,
2000-03-19, 01:34:00,VALID,0,VALID,95.9947,VALID,-0.101885,VALID,18.2639,VALID,102,VALID,0.888622,
2000-03-19, 01:35:00,VALID,0,VALID,96.0239,VALID,-0.101885,VALID,18.2741,VALID,103,VALID,0.79523,
2000-03-19, 01:36:01,VALID,0,VALID,96.0176,VALID,-0.101885,VALID,18.2771,VALID,107,VALID,0.743454,
2000-03-19, 01:37:00,VALID,0,VALID,95.8853,VALID,-0.101885,VALID,18.2708,VALID,107,VALID,0.580181,
2000-03-19, 01:38:00,VALID,0,VALID,95.809,VALID,-0.0849042,VALID,18.2838,VALID,107,VALID,0.564215,
2000-03-19, 01:39:00,VALID,0,VALID,95.7569,VALID,-0.101885,VALID,18.3024,VALID,107,VALID,0.485677,
2000-03-19, 01:40:00,VALID,0,VALID,95.57,VALID,-0.0509425,VALID,18.3352,VALID,107,VALID,0.43727,
2000-03-19, 01:41:00,VALID,0,VALID,95.5471,VALID,-0.0849042,VALID,18.3387,VALID,107,VALID,0.302284,
2000-03-19, 01:42:00,VALID,0,VALID,95.5458,VALID,-0.0849042,VALID,18.3417,VALID,107,VALID,0.229441,
2000-03-19, 01:43:00,VALID,0,VALID,95.6692,VALID,-0.101885,VALID,18.3315,VALID,107,VALID,0,
2000-03-19, 01:44:00,VALID,0,VALID,95.5547,VALID,-0.101885,VALID,18.316,VALID,107,VALID,0,
2000-03-19, 01:45:00,VALID,0,VALID,95.5903,VALID,-0.0849042,VALID,18.2997,VALID,106,VALID,0,
2000-03-19, 01:46:00,VALID,0,VALID,95.7251,VALID,-0.101885,VALID,18.2833,VALID,96,VALID,0,
2000-03-19, 01:47:00,VALID,0,VALID,95.645,VALID,-0.0849042,VALID,18.2704,VALID,96,VALID,0,
2000-03-19, 01:48:00,VALID,0,VALID,95.4924,VALID,-0.0849042,VALID,18.2741,VALID,96,VALID,0,
2000-03-19, 01:49:00,VALID,0,VALID,95.5013,VALID,-0.0339617,VALID,18.2575,VALID,96,VALID,0,
2000-03-19, 01:50:00,VALID,0,VALID,95.7137,VALID,0.0339617,VALID,18.2496,VALID,96,VALID,0,
2000-03-19, 01:51:00,VALID,0,VALID,95.8561,VALID,0.0509425,VALID,18.2596,VALID,96,VALID,0,
2000-03-19, 01:52:00,VALID,0,VALID,95.8027,VALID,0.0679233,VALID,18.2464,VALID,96,VALID,0,
2000-03-19, 01:53:00,VALID,0,VALID,95.6755,VALID,0.0339617,VALID,18.2305,VALID,96,VALID,0,
2000-03-19, 01:54:00,VALID,0,VALID,95.776,VALID,0.0509425,VALID,18.2012,VALID,96,VALID,0,
2000-03-19, 01:55:00,VALID,0,VALID,95.8052,VALID,0.0169808,VALID,18.1788,VALID,96,VALID,0,
2000-03-19, 01:56:00,VALID,0,VALID,95.8624,VALID,0.0339617,VALID,18.1489,VALID,96,VALID,0,
2000-03-19, 01:57:00,VALID,0,VALID,95.9947,VALID,0.0509425,VALID,18.1532,VALID,140,VALID,0,
2000-03-19, 01:58:00,VALID,0,VALID,96.146,VALID,0.0339617,VALID,18.1272,VALID,174,VALID,0,
2000-03-19, 01:59:00,VALID,0,VALID,96.2923,VALID,-0.0169808,VALID,18.0988,VALID,174,VALID,0,
2000-03-19, 02:00:00,VALID,0,VALID,96.3787,VALID,-0.0849042,VALID,18.0836,VALID,171,VALID,0,
2000-03-19, 02:01:00,VALID,0,VALID,96.3393,VALID,-0.0849042,VALID,18.0444,VALID,151,VALID,0,
2000-03-19, 02:02:00,VALID,0,VALID,96.235,VALID,-0.0679233,VALID,18.0128,VALID,151,VALID,0.330929,
2000-03-19, 02:03:00,VALID,0,VALID,96.497,VALID,-0.101885,VALID,17.9632,VALID,151,VALID,0.18149,
2000-03-19, 02:04:00,VALID,0,VALID,96.6292,VALID,-0.101885,VALID,17.9545,VALID,151,VALID,0,
2000-03-19, 02:05:00,VALID,0,VALID,96.7221,VALID,-0.0849042,VALID,17.9381,VALID,151,VALID,0,
2000-03-19, 02:06:00,VALID,0,VALID,96.8581,VALID,-0.101885,VALID,17.9319,VALID,151,VALID,0,
2000-03-19, 02:07:00,VALID,0,VALID,96.9115,VALID,-0.101885,VALID,17.9316,VALID,151,VALID,0,
2000-03-19, 02:08:00,VALID,0,VALID,96.8505,VALID,-0.101885,VALID,17.9452,VALID,164,VALID,0.0359375,
2000-03-19, 02:09:00,VALID,0,VALID,96.7704,VALID,-0.101885,VALID,17.9282,VALID,167,VALID,0.00401786,
2000-03-19, 02:10:00,VALID,0,VALID,96.7564,VALID,-0.101885,VALID,17.9314,VALID,167,VALID,0,
2000-03-19, 02:11:00,VALID,0,VALID,96.8836,VALID,-0.0679233,VALID,17.9644,VALID,170,VALID,0.0330882,
2000-03-19, 02:12:00,VALID,0,VALID,96.778,VALID,-0.0849042,VALID,17.9579,VALID,179,VALID,0.266627,
2000-03-19, 02:13:00,VALID,0,VALID,96.7297,VALID,-0.101885,VALID,17.9584,VALID,179,VALID,0.309659,
2000-03-19, 02:14:00,VALID,0,VALID,96.6712,VALID,-0.0339617,VALID,17.9406,VALID,184,VALID,0.439823,
2000-03-19, 02:15:00,VALID,0,VALID,96.7449,VALID,0.0509425,VALID,17.9365,VALID,190,VALID,0.237614,
2000-03-19, 02:16:00,VALID,0,VALID,96.7386,VALID,0.0169808,VALID,17.9565,VALID,190,VALID,0.000200321,
2000-03-19, 02:17:00,VALID,0,VALID,96.6826,VALID,0.0169808,VALID,17.9591,VALID,192,VALID,0.000600962,
2000-03-19, 02:18:00,VALID,0,VALID,96.6356,VALID,0.0339617,VALID,17.9529,VALID,192,VALID,0,
2000-03-19, 02:19:00,VALID,0,VALID,96.5657,VALID,0.0169808,VALID,17.963,VALID,192,VALID,0,
2000-03-19, 02:20:00,VALID,0,VALID,96.4728,VALID,-0.0169808,VALID,17.9342,VALID,192,VALID,0,
2000-03-19, 02:21:00,VALID,0,VALID,96.6776,VALID,0,VALID,17.9245,VALID,191,VALID,0,
2000-03-19, 02:22:00,VALID,0,VALID,96.6369,VALID,0.0169808,VALID,17.9243,VALID,161,VALID,0.00480769,
2000-03-19, 02:23:00,VALID,0,VALID,96.5606,VALID,0.0169808,VALID,17.9019,VALID,155,VALID,0.20662,
2000-03-19, 02:24:00,VALID,0,VALID,96.5097,VALID,0,VALID,17.8436,VALID,153,VALID,0.0705236,
2000-03-19, 02:25:00,VALID,0,VALID,96.6686,VALID,0.0169808,VALID,17.8016,VALID,153,VALID,0,
2000-03-19, 02:26:00,VALID,0,VALID,96.8149,VALID,0,VALID,17.8023,VALID,153,VALID,0,
2000-03-19, 02:27:00,VALID,0,VALID,96.9548,VALID,0,VALID,17.7659,VALID,147,VALID,0,
2000-03-19, 02:28:00,VALID,0,VALID,97.1684,VALID,0,VALID,17.7629,VALID,132,VALID,0,
2000-03-19, 02:29:00,VALID,0,VALID,97.3464,VALID,0.0169808,VALID,17.7663,VALID,132,VALID,0,
2000-03-19, 02:30:00,VALID,0,VALID,97.4825,VALID,0.0169808,VALID,17.7689,VALID,132,VALID,0,
2000-03-19, 02:31:01,VALID,0,VALID,97.499,VALID,0,VALID,17.7855,VALID,132,VALID,0,
2000-03-19, 02:32:00,VALID,0,VALID,97.5448,VALID,0.0169808,VALID,17.7919,VALID,132,VALID,0,
2000-03-19, 02:33:00,VALID,0,VALID,97.6478,VALID,0.0169808,VALID,17.8182,VALID,132,VALID,0,
2000-03-19, 02:34:00,VALID,0,VALID,97.6808,VALID,-0.0169808,VALID,17.8436,VALID,132,VALID,0,
2000-03-19, 02:35:00,VALID,0,VALID,97.5346,VALID,0.0169808,VALID,17.8728,VALID,171,VALID,0,
2000-03-19, 02:36:00,VALID,0,VALID,97.1849,VALID,-0.0169808,VALID,17.8924,VALID,220,VALID,0,
2000-03-19, 02:37:00,VALID,0,VALID,96.8441,VALID,0,VALID,17.8724,VALID,227,VALID,0.0981445,
2000-03-19, 02:38:00,VALID,0,VALID,96.6737,VALID,0.0169808,VALID,17.8475,VALID,214,VALID,0.0779018,
2000-03-19, 02:39:00,VALID,0,VALID,96.7437,VALID,0.0169808,VALID,17.8083,VALID,227,VALID,0,
2000-03-19, 02:40:00,VALID,0,VALID,96.97,VALID,0.0339617,VALID,17.8087,VALID,225,VALID,0,
2000-03-19, 02:41:00,VALID,0,VALID,97.1887,VALID,0,VALID,17.7956,VALID,229,VALID,0,
2000-03-19, 02:42:00,VALID,0,VALID,97.3515,VALID,0,VALID,17.7792,VALID,227,VALID,0,
2000-03-19, 02:43:00,VALID,0,VALID,97.4634,VALID,0,VALID,17.7629,VALID,208,VALID,0,
2000-03-19, 02:44:00,VALID,0,VALID,97.5066,VALID,0,VALID,17.7433,VALID,208,VALID,0,
2000-03-19, 02:45:00,VALID,0,VALID,97.527,VALID,0,VALID,17.7375,VALID,208,VALID,0,
2000-03-19, 02:46:00,VALID,0,VALID,97.5588,VALID,0,VALID,17.7179,VALID,208,VALID,0,
2000-03-19, 02:47:00,VALID,0,VALID,97.6084,VALID,0,VALID,17.7082,VALID,208,VALID,0,
2000-03-19, 02:48:00,VALID,0,VALID,97.7037,VALID,0,VALID,17.675,VALID,204,VALID,0,
2000-03-19, 02:49:00,VALID,0,VALID,97.719,VALID,0,VALID,17.6762,VALID,185,VALID,0,
2000-03-19, 02:50:00,VALID,0,VALID,97.8118,VALID,0.0339617,VALID,17.6596,VALID,178,VALID,0,
2000-03-19, 02:51:00,VALID,0,VALID,97.8958,VALID,0,VALID,17.6499,VALID,178,VALID,0,
2000-03-19, 02:52:00,VALID,0,VALID,98.089,VALID,0,VALID,17.6699,VALID,178,VALID,0,
2000-03-19, 02:53:00,VALID,0,VALID,98.2315,VALID,0,VALID,17.6888,VALID,178,VALID,0,
2000-03-19, 02:54:00,VALID,0,VALID,98.3434,VALID,0,VALID,17.7241,VALID,178,VALID,0,
2000-03-19, 02:55:00,VALID,0,VALID,98.2518,VALID,0,VALID,17.7409,VALID,174,VALID,0,
2000-03-19, 02:56:00,VALID,0,VALID,98.014,VALID,0,VALID,17.7375,VALID,172,VALID,0,
2000-03-19, 02:57:00,VALID,0,VALID,97.8805,VALID,-0.0169808,VALID,17.7114,VALID,172,VALID,0,
2000-03-19, 02:58:00,VALID,0,VALID,97.9008,VALID,-0.0339617,VALID,17.7183,VALID,172,VALID,0,
2000-03-19, 02:59:00,VALID,0,VALID,97.883,VALID,-0.0169808,VALID,17.6921,VALID,172,VALID,0,
2000-03-19, 03:00:00,VALID,0,VALID,98.0763,VALID,0,VALID,17.7082,VALID,171,VALID,0,
2000-03-19, 03:01:00,VALID,0,VALID,98.1208,VALID,-0.0339617,VALID,17.7439,VALID,171,VALID,0,
2000-03-19, 03:02:00,VALID,0,VALID,97.9695,VALID,0,VALID,17.7338,VALID,171,VALID,0,
2000-03-19, 03:03:00,VALID,0,VALID,98.1971,VALID,-0.0169808,VALID,17.773,VALID,180,VALID,0,
2000-03-19, 03:04:00,VALID,0,VALID,98.1374,VALID,0,VALID,17.8214,VALID,172,VALID,0,
2000-03-19, 03:05:01,VALID,0,VALID,97.8423,VALID,0,VALID,17.818,VALID,172,VALID,0,
2000-03-19, 03:06:00,VALID,0,VALID,97.6389,VALID,-0.0339617,VALID,17.8117,VALID,196,VALID,0,
2000-03-19, 03:07:00,VALID,0,VALID,97.6491,VALID,-0.0339617,VALID,17.8246,VALID,208,VALID,0,
2000-03-19, 03:08:00,VALID,0,VALID,97.6007,VALID,-0.0339617,VALID,17.8184,VALID,195,VALID,0,
2000-03-19, 03:09:00,VALID,0,VALID,97.4685,VALID,0,VALID,17.7988,VALID,175,VALID,0,
2000-03-19, 03:10:00,VALID,0,VALID,97.5232,VALID,-0.0169808,VALID,17.7861,VALID,171,VALID,0,
2000-03-19, 03:11:00,VALID,0,VALID,97.6529,VALID,-0.0169808,VALID,17.7827,VALID,186,VALID,0,
2000-03-19, 03:12:00,VALID,0,VALID,97.6262,VALID,0,VALID,17.77,VALID,200,VALID,0,
2000-03-19, 03:13:00,VALID,0,VALID,97.6681,VALID,0,VALID,17.7569,VALID,220,VALID,0,
2000-03-19, 03:14:00,VALID,0,VALID,97.8004,VALID,-0.0169808,VALID,17.7702,VALID,225,VALID,0.0222942,
2000-03-19, 03:15:00,VALID,0,VALID,97.9631,VALID,-0.0169808,VALID,17.7599,VALID,224,VALID,1.15299,
2000-03-19, 03:16:01,VALID,0,VALID,98.1437,VALID,0,VALID,17.7698,VALID,218,VALID,0.948529,
2000-03-19, 03:17:00,VALID,0,VALID,98.2696,VALID,0,VALID,17.7732,VALID,216,VALID,0.867788,
2000-03-19, 03:18:00,VALID,0,VALID,98.3726,VALID,-0.0169808,VALID,17.773,VALID,202,VALID,0.425576,
2000-03-19, 03:19:00,VALID,0,VALID,98.4616,VALID,-0.0169808,VALID,17.7599,VALID,218,VALID,0.442308,
2000-03-19, 03:20:00,VALID,0,VALID,98.5328,VALID,-0.0509425,VALID,17.7603,VALID,227,VALID,0.602865,
2000-03-19, 03:21:00,VALID,0,VALID,98.5786,VALID,-0.0339617,VALID,17.7605,VALID,223,VALID,1.05025,
2000-03-19, 03:22:00,VALID,0,VALID,98.6218,VALID,-0.0339617,VALID,17.7444,VALID,221,VALID,0.717272,
2000-03-19, 03:23:00,VALID,0,VALID,98.6511,VALID,-0.0509425,VALID,17.7282,VALID,218,VALID,0.964962,
2000-03-19, 03:24:00,VALID,0,VALID,98.7363,VALID,-0.0339617,VALID,17.7183,VALID,222,VALID,0.879557,
2000-03-19, 03:25:00,VALID,0,VALID,98.8151,VALID,-0.0169808,VALID,17.7181,VALID,225,VALID,0.942871,
2000-03-19, 03:26:00,VALID,0,VALID,98.8825,VALID,-0.0509425,VALID,17.7313,VALID,228,VALID,0.858036,
2000-03-19, 03:27:01,VALID,0,VALID,98.8876,VALID,-0.0169808,VALID,17.7183,VALID,225,VALID,0.778045,
2000-03-19, 03:28:00,VALID,0,VALID,98.9474,VALID,-0.0339617,VALID,17.7082,VALID,222,VALID,0.843316,
2000-03-19, 03:29:00,VALID,0,VALID,99.0148,VALID,0.0509425,VALID,17.7306,VALID,220,VALID,0.752404,
2000-03-19, 03:30:00,VALID,0,VALID,99.0275,VALID,0.0849042,VALID,17.7267,VALID,221,VALID,0.52832,
2000-03-19, 03:31:00,VALID,0,VALID,99.0542,VALID,0.101885,VALID,17.7297,VALID,221,VALID,0.57278,
2000-03-19, 03:32:00,VALID,0,VALID,99.0504,VALID,0.0849042,VALID,17.7392,VALID,225,VALID,0.653392,
2000-03-19, 03:33:00,VALID,0,VALID,99.0771,VALID,0.101885,VALID,17.7456,VALID,216,VALID,0.66913,
2000-03-19, 03:34:00,VALID,0,VALID,99.1025,VALID,0.101885,VALID,17.7553,VALID,216,VALID,0.555321,
2000-03-19, 03:35:00,VALID,0,VALID,99.0364,VALID,0.101885,VALID,17.7555,VALID,213,VALID,0.48112,
2000-03-19, 03:36:00,VALID,0,VALID,98.9766,VALID,0.0849042,VALID,17.7456,VALID,208,VALID,0.328125,
2000-03-19, 03:37:00,VALID,0,VALID,98.9614,VALID,0.118866,VALID,17.7361,VALID,206,VALID,0.153505,
2000-03-19, 03:38:01,VALID,0,VALID,98.9232,VALID,0.0679233,VALID,17.7232,VALID,206,VALID,0,
2000-03-19, 03:39:00,VALID,0,VALID,98.8914,VALID,0.101885,VALID,17.7099,VALID,203,VALID,0,
2000-03-19, 03:40:00,VALID,0,VALID,98.8787,VALID,0.101885,VALID,17.6942,VALID,201,VALID,0,
2000-03-19, 03:41:00,VALID,0,VALID,98.8965,VALID,0.101885,VALID,17.6944,VALID,208,VALID,0,
2000-03-19, 03:42:00,VALID,0,VALID,98.9296,VALID,0.0849042,VALID,17.694,VALID,207,VALID,0,
2000-03-19, 03:43:00,VALID,0,VALID,98.9372,VALID,0.118866,VALID,17.7004,VALID,207,VALID,0,
2000-03-19, 03:44:00,VALID,0,VALID,98.8965,VALID,0,VALID,17.6987,VALID,207,VALID,0,
2000-03-19, 03:45:00,VALID,0,VALID,98.8634,VALID,-0.0849042,VALID,17.68,VALID,193,VALID,0,
2000-03-19, 03:46:00,VALID,0,VALID,98.81,VALID,-0.0679233,VALID,17.6609,VALID,182,VALID,0,
2000-03-19, 03:47:00,VALID,0,VALID,98.8049,VALID,-0.101885,VALID,17.628,VALID,180,VALID,0,
2000-03-19, 03:48:00,VALID,0,VALID,98.8075,VALID,-0.0509425,VALID,17.6215,VALID,180,VALID,0,
2000-03-19, 03:49:01,VALID,0,VALID,98.7833,VALID,-0.0849042,VALID,17.6192,VALID,180,VALID,0,
2000-03-19, 03:50:00,VALID,0,VALID,98.791,VALID,-0.0339617,VALID,17.6024,VALID,180,VALID,0,
2000-03-19, 03:51:00,VALID,0,VALID,98.7999,VALID,-0.0509425,VALID,17.5963,VALID,177,VALID,0,
2000-03-19, 03:52:00,VALID,0,VALID,98.8227,VALID,-0.0509425,VALID,17.5957,VALID,172,VALID,0,
2000-03-19, 03:53:00,VALID,0,VALID,98.7859,VALID,-0.0679233,VALID,17.5929,VALID,166,VALID,0,
2000-03-19, 03:54:00,VALID,0,VALID,98.7935,VALID,-0.0509425,VALID,17.5864,VALID,166,VALID,0,
2000-03-19, 03:55:00,VALID,0,VALID,98.8151,VALID,-0.0169808,VALID,17.5763,VALID,166,VALID,0,
2000-03-19, 03:56:00,VALID,0,VALID,98.8622,VALID,-0.0509425,VALID,17.5959,VALID,166,VALID,0,
2000-03-19, 03:57:00,VALID,0,VALID,98.8711,VALID,-0.0169808,VALID,17.6024,VALID,166,VALID,0,
2000-03-19, 03:58:00,VALID,0,VALID,98.8673,VALID,-0.0679233,VALID,17.6024,VALID,166,VALID,0,
2000-03-19, 03:59:00,VALID,0,VALID,98.8469,VALID,-0.0169808,VALID,17.5989,VALID,166,VALID,0,
2000-03-19, 04:00:01,VALID,0,VALID,98.8278,VALID,0.0849042,VALID,17.5913,VALID,166,VALID,0,
2000-03-19, 04:01:00,VALID,0,VALID,98.8088,VALID,0.0849042,VALID,17.5883,VALID,166,VALID,0,
2000-03-19, 04:02:00,VALID,0,VALID,98.8037,VALID,0.0339617,VALID,17.5817,VALID,166,VALID,0,
2000-03-19, 04:03:00,VALID,0,VALID,98.8037,VALID,0.0849042,VALID,17.5952,VALID,161,VALID,0,
2000-03-19, 04:04:00,VALID,0,VALID,98.7821,VALID,0.0679233,VALID,17.5752,VALID,141,VALID,0,
2000-03-19, 04:05:00,VALID,0,VALID,98.7744,VALID,0.0339617,VALID,17.5853,VALID,125,VALID,0,
2000-03-19, 04:06:00,VALID,0,VALID,98.7337,VALID,0.0679233,VALID,17.5692,VALID,117,VALID,0,
2000-03-19, 04:07:00,VALID,0,VALID,98.7477,VALID,0.0339617,VALID,17.569,VALID,117,VALID,0,
2000-03-19, 04:08:00,VALID,0,VALID,98.7312,VALID,0.0339617,VALID,17.5759,VALID,117,VALID,0,
2000-03-19, 04:09:01,VALID,0,VALID,98.674,VALID,0.0169808,VALID,17.5434,VALID,114,VALID,0,
2000-03-19, 04:10:00,VALID,0,VALID,98.6676,VALID,0.0509425,VALID,17.5429,VALID,119,VALID,0,
2000-03-19, 04:11:01,VALID,0,VALID,98.6727,VALID,0.0509425,VALID,17.5496,VALID,123,VALID,0,
2000-03-19, 04:12:00,VALID,0,VALID,98.6231,VALID,0.0509425,VALID,17.5655,VALID,133,VALID,0,